timestamp,wind_dir_avg,wind_spd_max_dir,wind_spd_avg,wind_spd_gust,battery_voltage,lat,long
2019-02-06 00:00:00+00:00,208.0,205.0,7.61,8.55,,47.59359,-54.27349
2019-02-06 00:10:00+00:00,201.0,206.0,6.25,7.12,,47.59359,-54.27349
2019-02-06 00:20:00+00:00,208.0,212.0,7.95,8.83,,47.59359,-54.27349
2019-02-06 00:30:00+00:00,215.0,215.0,7.63,8.53,,47.59359,-54.27349
2019-02-06 00:40:00+00:00,203.0,205.0,6.74,7.76,,47.59359,-54.27349
2019-02-06 00:50:00+00:00,202.0,200.0,6.01,6.42,,47.59359,-54.27349
2019-02-06 01:00:00+00:00,216.0,215.0,5.19,5.87,,47.59359,-54.27349
2019-02-06 04:20:00+00:00,170.0,166.0,2.73,6.22,,47.59359,-54.27349
2019-02-06 04:30:00+00:00,219.0,219.0,3.24,3.29,,47.59359,-54.27349
2019-02-06 04:50:00+00:00,206.0,210.0,3.0,3.37,,47.59359,-54.27349
2019-02-06 05:00:00+00:00,164.0,178.0,1.77,2.34,,47.59359,-54.27349
2019-02-06 05:10:00+00:00,228.0,229.0,3.76,4.45,,47.59359,-54.27349
2019-02-06 05:20:00+00:00,221.0,222.0,3.5,3.68,,47.59359,-54.27349
2019-02-06 05:30:00+00:00,214.0,224.0,2.7,3.33,,47.59359,-54.27349
2019-02-06 05:40:00+00:00,230.0,229.0,3.89,4.34,,47.59359,-54.27349
2019-02-06 05:50:00+00:00,245.0,247.0,5.34,5.7,,47.59359,-54.27349
2019-02-06 06:00:00+00:00,250.0,251.0,4.9,5.75,,47.59359,-54.27349
2019-02-06 06:10:00+00:00,237.0,238.0,6.09,6.7,,47.59359,-54.27349
2019-02-06 06:20:00+00:00,230.0,226.0,4.78,6.16,,47.59359,-54.27349
2019-02-06 06:30:00+00:00,222.0,223.0,4.29,4.96,,47.59359,-54.27349
2019-02-06 06:40:00+00:00,220.0,219.0,3.58,4.01,,47.59359,-54.27349
2019-02-06 06:50:00+00:00,244.0,249.0,2.6,2.74,,47.59359,-54.27349
2019-02-06 07:00:00+00:00,250.0,247.0,3.3,3.62,,47.59359,-54.27349
2019-02-06 07:10:00+00:00,239.0,233.0,4.03,4.88,,47.59359,-54.27349
2019-02-06 07:20:00+00:00,233.0,238.0,6.95,8.5,,47.59359,-54.27349
2019-02-06 07:30:00+00:00,255.0,250.0,5.79,6.96,,47.59359,-54.27349
2019-02-06 07:40:00+00:00,240.0,240.0,4.0,4.54,,47.59359,-54.27349
2019-02-06 07:50:00+00:00,231.0,229.0,4.25,4.69,,47.59359,-54.27349
2019-02-06 08:00:00+00:00,252.0,250.0,3.84,4.47,,47.59359,-54.27349
2019-02-06 08:10:00+00:00,257.0,256.0,2.96,3.14,,47.59359,-54.27349
2019-02-06 08:20:00+00:00,265.0,266.0,2.38,2.59,,47.59359,-54.27349
2019-02-06 08:30:00+00:00,231.0,234.0,2.69,3.04,,47.59359,-54.27349
2019-02-06 08:40:00+00:00,240.0,244.0,5.0,6.2,,47.59359,-54.27349
2019-02-06 08:50:00+00:00,229.0,231.0,5.54,6.15,,47.59359,-54.27349
2019-02-06 09:00:00+00:00,227.0,231.0,6.3,6.99,,47.59359,-54.27349
2019-02-06 09:10:00+00:00,232.0,234.0,5.52,6.02,,47.59359,-54.27349
2019-02-06 09:20:00+00:00,227.0,229.0,6.53,7.2,,47.59359,-54.27349
2019-02-06 09:30:00+00:00,232.0,231.0,6.32,7.04,,47.59359,-54.27349
2019-02-06 09:40:00+00:00,217.0,221.0,3.53,3.88,,47.59359,-54.27349
2019-02-06 09:50:00+00:00,225.0,221.0,3.0,3.4,,47.59359,-54.27349
2019-02-06 10:00:00+00:00,233.0,232.0,4.88,6.34,,47.59359,-54.27349
2019-02-06 10:10:00+00:00,265.0,265.0,4.8,5.74,,47.59359,-54.27349
2019-02-06 10:20:00+00:00,255.0,260.0,7.57,8.54,,47.59359,-54.27349
2019-02-06 10:30:00+00:00,350.0,332.0,1.79,2.43,,47.59359,-54.27349
2019-02-06 10:40:00+00:00,18.0,20.0,1.79,2.05,,47.59359,-54.27349
2019-02-06 10:50:00+00:00,0.0,331.0,0.64,1.04,,47.59359,-54.27349
2019-02-06 11:00:00+00:00,210.0,216.0,0.68,0.81,,47.59359,-54.27349
2019-02-06 11:10:00+00:00,228.0,227.0,0.93,1.09,,47.59359,-54.27349
2019-02-06 11:20:00+00:00,5.0,358.0,0.88,0.94,,47.59359,-54.27349
2019-02-06 11:30:00+00:00,14.0,358.0,1.06,1.74,,47.59359,-54.27349
2019-02-06 11:40:00+00:00,14.0,16.0,2.38,2.64,,47.59359,-54.27349
2019-02-06 11:50:00+00:00,14.0,13.0,2.22,2.41,,47.59359,-54.27349
2019-02-06 12:00:00+00:00,36.0,37.0,2.34,2.65,,47.59359,-54.27349
2019-02-06 12:10:00+00:00,67.0,64.0,1.56,2.06,,47.59359,-54.27349
2019-02-06 12:20:00+00:00,38.0,39.0,2.06,2.17,,47.59359,-54.27349
2019-02-06 12:30:00+00:00,77.0,72.0,1.91,2.39,,47.59359,-54.27349
2019-02-06 12:40:00+00:00,70.0,70.0,1.52,2.01,,47.59359,-54.27349
2019-02-06 12:50:00+00:00,43.0,41.0,1.27,1.51,,47.59359,-54.27349
2019-02-06 13:00:00+00:00,84.0,84.0,1.27,1.64,,47.59359,-54.27349
2019-02-06 13:10:00+00:00,67.0,60.0,1.8,2.15,,47.59359,-54.27349
2019-02-06 13:20:00+00:00,31.0,36.0,2.63,3.06,,47.59359,-54.27349
2019-02-06 13:30:00+00:00,25.0,23.0,3.33,3.68,,47.59359,-54.27349
2019-02-06 13:40:00+00:00,10.0,11.0,3.32,3.54,,47.59359,-54.27349
2019-02-06 13:50:00+00:00,26.0,28.0,3.55,4.15,,47.59359,-54.27349
2019-02-06 14:00:00+00:00,33.0,39.0,3.66,4.17,,47.59359,-54.27349
2019-02-06 14:10:00+00:00,35.0,37.0,4.29,4.87,,47.59359,-54.27349
2019-02-06 14:20:00+00:00,11.0,19.0,10.59,12.43,,47.59359,-54.27349
2019-02-06 14:30:00+00:00,15.0,20.0,12.04,14.26,,47.59359,-54.27349
2019-02-06 14:40:00+00:00,13.0,17.0,11.72,13.27,,47.59359,-54.27349
2019-02-06 14:50:00+00:00,15.0,13.0,9.27,11.06,,47.59359,-54.27349
2019-02-06 15:00:00+00:00,21.0,14.0,6.45,8.03,,47.59359,-54.27349
2019-02-06 15:10:00+00:00,15.0,13.0,9.64,11.21,,47.59359,-54.27349
2019-02-06 15:20:00+00:00,23.0,25.0,9.01,11.1,,47.59359,-54.27349
2019-02-06 15:30:00+00:00,32.0,34.0,8.35,9.43,,47.59359,-54.27349
2019-02-06 15:40:00+00:00,31.0,31.0,8.7,10.01,,47.59359,-54.27349
2019-02-06 15:50:00+00:00,37.0,35.0,9.08,10.16,,47.59359,-54.27349
2019-02-06 16:00:00+00:00,35.0,36.0,9.94,10.93,,47.59359,-54.27349
2019-02-06 16:10:00+00:00,34.0,36.0,8.26,9.07,,47.59359,-54.27349
2019-02-06 16:20:00+00:00,38.0,37.0,8.79,10.48,,47.59359,-54.27349
2019-02-06 16:30:00+00:00,38.0,35.0,8.9,10.61,,47.59359,-54.27349
2019-02-06 16:40:00+00:00,33.0,39.0,10.17,11.21,,47.59359,-54.27349
2019-02-06 16:50:00+00:00,34.0,28.0,9.45,10.9,,47.59359,-54.27349
2019-02-06 17:00:00+00:00,32.0,30.0,11.28,11.87,,47.59359,-54.27349
2019-02-06 17:10:00+00:00,36.0,37.0,8.48,9.47,,47.59359,-54.27349
2019-02-06 17:20:00+00:00,33.0,32.0,8.18,9.29,,47.59359,-54.27349
2019-02-06 17:30:00+00:00,40.0,42.0,9.52,10.57,,47.59359,-54.27349
2019-02-06 17:40:00+00:00,37.0,37.0,10.75,11.89,,47.59359,-54.27349
2019-02-06 17:50:00+00:00,32.0,34.0,7.48,9.0,,47.59359,-54.27349
2019-02-06 18:00:00+00:00,31.0,37.0,9.89,11.11,,47.59359,-54.27349
2019-02-06 18:10:00+00:00,27.0,29.0,8.47,9.82,,47.59359,-54.27349
2019-02-06 18:20:00+00:00,35.0,35.0,12.0,14.07,,47.59359,-54.27349
2019-02-06 18:30:00+00:00,39.0,40.0,11.1,12.82,,47.59359,-54.27349
2019-02-06 18:40:00+00:00,27.0,24.0,10.73,12.67,,47.59359,-54.27349
2019-02-06 18:50:00+00:00,31.0,31.0,10.14,11.87,,47.59359,-54.27349
2019-02-06 19:00:00+00:00,34.0,39.0,11.09,12.85,,47.59359,-54.27349
2019-02-06 19:10:00+00:00,34.0,36.0,11.06,12.4,,47.59359,-54.27349
2019-02-06 19:20:00+00:00,35.0,39.0,11.47,13.5,,47.59359,-54.27349
2019-02-06 19:30:00+00:00,36.0,37.0,10.97,12.79,,47.59359,-54.27349
2019-02-06 19:40:00+00:00,33.0,34.0,12.24,14.2,,47.59359,-54.27349
2019-02-06 19:50:00+00:00,28.0,32.0,10.74,12.51,,47.59359,-54.27349
2019-02-06 20:00:00+00:00,33.0,32.0,11.02,11.84,,47.59359,-54.27349
2019-02-06 20:10:00+00:00,34.0,35.0,10.59,12.34,,47.59359,-54.27349
2019-02-06 20:20:00+00:00,31.0,34.0,13.38,15.41,,47.59359,-54.27349
2019-02-06 20:30:00+00:00,34.0,34.0,11.48,13.01,,47.59359,-54.27349
2019-02-06 20:40:00+00:00,39.0,45.0,11.27,13.01,,47.59359,-54.27349
2019-02-06 20:50:00+00:00,41.0,36.0,12.38,13.79,,47.59359,-54.27349
2019-02-06 21:00:00+00:00,43.0,45.0,11.92,12.87,,47.59359,-54.27349
2019-02-06 21:10:00+00:00,38.0,39.0,11.11,12.63,,47.59359,-54.27349
2019-02-06 21:20:00+00:00,36.0,38.0,12.12,13.25,,47.59359,-54.27349
2019-02-06 21:30:00+00:00,38.0,36.0,10.94,12.04,,47.59359,-54.27349
2019-02-06 21:40:00+00:00,36.0,34.0,10.72,12.57,,47.59359,-54.27349
2019-02-06 21:50:00+00:00,38.0,33.0,11.17,12.31,,47.59359,-54.27349
2019-02-06 22:00:00+00:00,39.0,39.0,10.21,11.53,,47.59359,-54.27349
2019-02-06 22:10:00+00:00,35.0,41.0,9.63,11.52,,47.59359,-54.27349
2019-02-06 22:20:00+00:00,36.0,35.0,10.76,12.05,,47.59359,-54.27349
2019-02-06 22:30:00+00:00,37.0,36.0,11.43,12.95,,47.59359,-54.27349
2019-02-06 22:40:00+00:00,30.0,28.0,11.86,13.41,,47.59359,-54.27349
2019-02-06 22:50:00+00:00,35.0,29.0,10.0,11.71,,47.59359,-54.27349
2019-02-06 23:00:00+00:00,38.0,48.0,10.7,11.52,,47.59359,-54.27349
2019-02-06 23:10:00+00:00,34.0,31.0,10.57,11.73,,47.59359,-54.27349
2019-02-06 23:20:00+00:00,38.0,38.0,12.51,14.54,,47.59359,-54.27349
2019-02-06 23:30:00+00:00,32.0,31.0,10.97,12.66,,47.59359,-54.27349
2019-02-06 23:40:00+00:00,37.0,35.0,11.89,13.92,,47.59359,-54.27349
2019-02-06 23:50:00+00:00,30.0,30.0,9.3,11.45,,47.59359,-54.27349
